Probability
0 0 0 0 0 0 0 0 0 0 0 0 3 3 0 0 0 0 0 0 0 0 0 0 0 3 3 0 0 0 0 0 0 0 0 0 0 0 0 0 0 0 0 0
0 0 0 0 0 0 0 0 0 0 0 3 0 0 0 0 0 0 0 0 0 0 0 0 0 0 0 0 0 0 0 0 0 0 0 0 0 0 0 0 0 0 0 0
0 0 0 0 0 0 0 0 0 0 0 0 0 0 0 0 0 0 0 0 0 0 0 0 0 0 0 0 0 0 0 0 0 0 0 0 0 0 0 0 0 0 0 0
0 0 0 0 0 0 0 0 0 0 0 0 0 0 0 0 0 0 0 0 0 0 0 0 0 0 0 0 0 0 0 0 0 0 0 0 0 0 0 0 0 0 0 0
0 0 0 0 0 0 0 0 0 0 0 0 0 0 0 0 0 0 0 0 0 0 0 0 0 0 0 0 0 0 0 0 0 0 0 0 0 0 0 0 0 0 0 0
0 0 0 0 0 0 0 0 0 0 0 0 0 0 0 0 0 0 0 0 0 0 0 0 0 0 0 0 0 0 0 0 0 0 0 0 0 0 0 0 0 0 0 0
0 0 0 0 0 0 0 0 0 0 0 0 0 0 0 0 0 0 0 0 0 0 0 0 0 0 0 0 0 0 0 0 0 0 0 0 0 0 0 0 0 0 0 0
0 0 0 0 0 0 10 6 3 0 0 0 0 0 0 0 0 0 0 0 0 0 0 0 0 0 0 0 0 0 0 0 0 0 0 0 0 0 0 0 0 0 0 0
0 0 0 0 3 0 6 6 3 0 0 0 0 0 0 0 0 0 0 0 0 0 0 0 0 0 0 0 0 0 0 0 0 0 0 0 0 0 0 0 0 0 0 0
0 0 0 0 0 0 0 0 0 0 0 0 0 0 0 0 0 0 0 0 0 0 0 0 0 0 0 0 0 0 0 0 0 0 0 0 0 0 0 0 0 0 0 0
0 3 0 0 0 0 0 0 0 0 0 0 0 0 0 0 0 0 0 0 0 0 0 0 0 0 0 0 0 0 0 0 0 0 0 0 0 0 0 0 0 0 0 0
0 3 3 0 0 0 0 0 0 0 0 0 0 0 0 0 0 0 0 0 0 0 0 0 0 0 0 0 0 0 0 0 0 0 0 0 0 0 0 0 0 0 0 0
0 0 0 0 0 0 0 0 0 0 0 0 0 0 0 0 0 0 0 0 0 0 0 0 0 0 0 0 0 0 0 0 0 0 0 0 0 0 0 0 0 0 0 0
0 0 0 0 0 0 0 0 0 0 0 0 0 0 0 0 0 0 0 0 0 0 0 0 0 0 0 0 0 0 0 0 0 0 0 0 0 0 0 0 0 0 0 0
0 0 0 0 0 0 0 0 0 0 0 0 0 0 0 0 0 0 0 0 0 0 0 0 0 0 0 0 0 0 0 0 0 0 0 0 0 0 0 0 0 0 0 0
0 0 0 0 0 0 0 0 0 0 0 0 0 0 0 0 0 0 0 0 0 0 0 0 0 0 0 0 0 0 0 0 0 0 0 0 0 0 0 0 0 0 0 0
0 0 0 0 0 0 0 0 0 0 0 0 0 0 0 0 0 0 0 0 0 0 0 0 0 0 0 0 0 0 0 0 0 0 0 0 0 0 0 0 0 0 0 0
0 0 0 0 0 0 0 0 0 0 0 0 0 0 0 0 0 0 0 0 0 0 0 0 0 0 0 0 0 0 0 0 0 0 0 0 0 0 0 0 0 0 0 0
0 0 0 0 0 0 0 0 0 0 0 0 0 0 0 0 0 0 0 0 0 0 0 0 0 0 0 0 0 0 0 0 0 0 0 0 0 0 0 0 0 0 0 0
0 0 0 0 0 0 0 0 0 0 0 0 0 0 0 0 0 0 0 0 0 0 0 0 0 0 0 0 0 0 0 0 0 0 0 0 0 0 0 0 0 0 0 0
0 0 0 0 0 0 0 0 0 0 0 0 0 0 0 0 0 0 0 0 0 0 0 0 0 0 0 0 0 0 0 0 0 0 0 0 0 0 0 0 0 0 0 0
0 0 0 0 0 0 0 0 0 0 0 0 0 0 0 0 0 0 0 0 0 0 0 0 0 0 0 0 0 0 0 0 0 0 0 0 0 0 0 0 0 0 0 0
0 0 0 0 0 0 0 0 0 0 0 0 0 0 0 0 0 0 0 0 0 0 0 0 0 0 0 0 0 0 0 0 0 0 0 0 0 0 0 0 0 0 0 0
0 0 0 0 0 0 0 0 0 0 0 0 0 0 0 0 0 0 0 0 0 0 0 0 0 0 0 0 0 0 0 0 0 0 0 0 0 0 0 0 0 0 0 0
0 0 0 0 0 0 0 0 0 0 0 0 0 0 0 0 0 0 0 0 0 0 0 0 0 0 0 0 0 0 0 0 0 0 0 0 0 0 0 0 0 0 0 0
0 0 0 0 0 0 0 0 0 0 0 0 0 0 0 0 0 0 0 0 0 0 0 0 0 0 0 0 0 0 0 0 0 0 0 0 0 0 0 0 0 0 0 0
0 0 0 0 0 0 0 0 0 0 0 0 0 0 0 0 0 0 0 0 0 0 0 0 0 0 0 0 0 0 0 0 0 0 0 0 0 0 0 0 0 0 0 0
Height
5776 5777 5778 5778 5778 5778 5778 5778 5777 5776 5774 5772 5769 5767 5765 5762 5759 5756 5753 5750 5747 5744 5742 5740 5738 5737 5735 5734 5733 5733 5732 5732 5733 5733 5734 5736 5737 5739 5741 5743 5745 5747 5749 5750
5772 5773 5774 5774 5775 5774 5774 5773 5772 5771 5769 5766 5764 5761 5759 5756 5752 5749 5746 5742 5739 5736 5734 5732 5730 5729 5727 5726 5726 5725 5725 5726 5726 5728 5729 5730 5732 5734 5736 5738 5740 5742 5744 5745
5770 5770 5771 5771 5771 5771 5770 5769 5768 5766 5764 5761 5758 5756 5752 5749 5745 5742 5738 5735 5732 5729 5726 5724 5723 5721 5720 5719 5719 5718 5719 5720 5721 5722 5724 5725 5727 5730 5732 5734 5736 5737 5739 5741
5766 5768 5768 5770 5767 5767 5766 5764 5763 5761 5759 5756 5753 5750 5746 5742 5738 5734 5731 5728 5724 5721 5719 5717 5716 5714 5714 5713 5713 5712 5713 5714 5716 5717 5719 5721 5723 5726 5728 5730 5732 5734 5735 5737
5763 5764 5765 5765 5763 5763 5762 5760 5758 5756 5753 5750 5746 5743 5739 5735 5731 5727 5724 5720 5717 5715 5712 5711 5709 5709 5708 5708 5707 5708 5708 5710 5711 5713 5715 5717 5719 5722 5724 5726 5728 5730 5731 5733
5760 5761 5762 5762 5760 5759 5759 5756 5754 5751 5748 5744 5740 5737 5733 5728 5724 5720 5717 5714 5711 5709 5707 5705 5704 5704 5703 5703 5703 5704 5704 5706 5708 5710 5712 5714 5716 5718 5720 5722 5725 5726 5728 5729
5757 5758 5758 5758 5756 5756 5756 5753 5749 5746 5742 5739 5735 5731 5727 5722 5718 5714 5711 5708 5705 5703 5702 5701 5700 5700 5699 5699 5700 5701 5702 5703 5705 5707 5709 5711 5713 5716 5718 5720 5722 5723 5725 5726
5754 5755 5757 5754 5753 5753 5751 5748 5744 5741 5738 5733 5729 5725 5720 5716 5712 5709 5706 5703 5701 5699 5698 5697 5697 5697 5697 5697 5698 5698 5700 5701 5703 5705 5707 5709 5711 5713 5716 5718 5719 5721 5723 5724
5752 5754 5752 5751 5750 5749 5746 5744 5741 5737 5733 5729 5724 5720 5716 5712 5708 5705 5702 5700 5698 5696 5695 5695 5695 5695 5696 5696 5696 5697 5699 5700 5702 5704 5706 5708 5710 5712 5714 5716 5718 5719 5721 5722
5749 5749 5749 5748 5747 5745 5743 5740 5737 5733 5729 5724 5720 5716 5712 5708 5705 5702 5699 5697 5696 5695 5694 5694 5694 5694 5695 5696 5696 5697 5698 5700 5701 5703 5705 5707 5709 5711 5713 5715 5716 5718 5719 5720
5746 5747 5747 5746 5744 5742 5740 5737 5733 5729 5725 5721 5717 5713 5709 5706 5703 5700 5698 5696 5695 5695 5694 5694 5694 5694 5695 5696 5696 5697 5698 5700 5702 5704 5706 5708 5709 5711 5713 5714 5716 5717 5718 5719
5745 5745 5745 5744 5742 5740 5737 5734 5730 5726 5722 5718 5715 5711 5708 5705 5702 5700 5698 5696 5696 5695 5695 5695 5694 5695 5695 5696 5697 5698 5700 5701 5703 5705 5706 5708 5710 5711 5713 5714 5716 5717 5718 5718
5743 5743 5742 5742 5740 5738 5735 5732 5728 5724 5721 5717 5714 5711 5708 5705 5703 5700 5699 5698 5697 5697 5696 5696 5696 5696 5697 5697 5699 5700 5701 5702 5704 5706 5708 5709 5711 5712 5714 5715 5716 5717 5717 5718
5741 5741 5741 5740 5738 5736 5733 5730 5727 5723 5720 5717 5714 5711 5708 5706 5704 5702 5701 5700 5699 5698 5698 5698 5698 5698 5699 5700 5701 5702 5703 5705 5706 5707 5709 5711 5712 5713 5715 5716 5717 5717 5718 5718
5740 5740 5739 5738 5737 5735 5732 5729 5726 5723 5720 5717 5715 5712 5710 5708 5706 5704 5703 5702 5701 5701 5700 5700 5701 5701 5702 5702 5703 5704 5706 5707 5709 5710 5711 5713 5714 5715 5716 5717 5718 5719 5719 5720
5739 5739 5738 5737 5736 5734 5732 5729 5727 5724 5721 5718 5716 5714 5712 5710 5709 5707 5706 5705 5705 5704 5704 5703 5704 5704 5705 5705 5706 5707 5709 5710 5712 5713 5714 5715 5716 5718 5719 5720 5721 5721 5722 5722
5738 5738 5738 5737 5735 5734 5732 5730 5728 5725 5723 5721 5719 5716 5715 5713 5712 5711 5709 5709 5708 5707 5707 5707 5707 5707 5708 5708 5709 5710 5712 5713 5715 5716 5717 5718 5719 5721 5722 5723 5723 5724 5725 5725
5738 5738 5737 5737 5736 5734 5733 5732 5730 5728 5725 5724 5722 5720 5718 5717 5715 5714 5713 5712 5712 5711 5711 5711 5711 5711 5712 5712 5713 5714 5715 5717 5718 5719 5721 5722 5723 5724 5725 5726 5726 5727 5728 5728
5737 5737 5737 5737 5736 5735 5735 5733 5732 5730 5729 5727 5725 5723 5722 5720 5719 5718 5717 5716 5716 5715 5716 5715 5715 5716 5716 5717 5717 5718 5719 5720 5722 5723 5724 5725 5727 5728 5729 5729 5730 5730 5731 5731
5737 5738 5737 5737 5737 5737 5736 5735 5734 5733 5732 5730 5729 5727 5725 5724 5723 5722 5721 5721 5720 5720 5720 5720 5720 5721 5721 5722 5722 5723 5724 5725 5726 5727 5728 5729 5730 5732 5732 5733 5734 5734 5734 5735
5737 5738 5738 5738 5738 5738 5737 5737 5736 5735 5734 5733 5732 5730 5729 5728 5727 5726 5726 5725 5725 5725 5725 5725 5725 5725 5726 5726 5727 5728 5729 5730 5730 5731 5732 5733 5735 5735 5736 5737 5737 5738 5738 5738
5737 5738 5738 5739 5739 5739 5739 5738 5738 5737 5737 5736 5735 5734 5733 5732 5731 5731 5730 5730 5730 5729 5729 5730 5730 5730 5731 5731 5732 5733 5734 5734 5735 5736 5737 5738 5739 5739 5740 5740 5741 5741 5741 5741
5737 5737 5738 5739 5739 5740 5740 5740 5740 5739 5739 5738 5738 5737 5736 5736 5735 5735 5735 5735 5734 5734 5734 5735 5735 5735 5736 5736 5737 5738 5738 5739 5740 5741 5741 5742 5743 5743 5744 5744 5744 5745 5745 5745
5735 5736 5737 5738 5739 5740 5740 5741 5741 5741 5741 5740 5740 5740 5739 5739 5739 5739 5739 5739 5739 5739 5739 5739 5740 5740 5741 5741 5742 5742 5743 5744 5744 5745 5746 5746 5747 5747 5747 5748 5748 5748 5748 5747
5733 5735 5736 5737 5738 5739 5740 5741 5742 5742 5742 5742 5742 5742 5742 5742 5742 5743 5743 5743 5743 5743 5744 5744 5744 5745 5745 5746 5746 5747 5747 5748 5749 5749 5749 5750 5750 5751 5751 5751 5751 5751 5751 5750
5731 5732 5734 5735 5737 5738 5739 5740 5742 5742 5743 5743 5744 5744 5744 5745 5745 5746 5746 5747 5747 5747 5748 5748 5748 5749 5749 5750 5750 5751 5751 5752 5752 5753 5753 5753 5753 5754 5754 5754 5754 5753 5753 5753
5727 5729 5731 5733 5735 5736 5738 5739 5741 5742 5743 5744 5745 5745 5746 5747 5748 5748 5749 5750 5750 5751 5751 5752 5752 5753 5753 5753 5754 5754 5755 5755 5755 5756 5756 5756 5756 5757 5756 5756 5756 5756 5755 5754
Wind_Speed
14 15 14 14 14 14 14 15 15 16 18 19 20 21 22 23 25 25 26 27 27 27 27 26 26 26 25 25 24 24 23 23 22 22 21 21 21 21 21 21 20 21 23 23
13 13 13 13 14 14 15 15 16 17 19 20 21 22 23 25 26 27 27 27 27 27 27 26 26 25 25 24 23 22 22 22 21 20 19 20 20 20 20 20 20 20 20 21
13 13 12 13 14 14 15 15 17 18 20 21 22 23 25 26 27 27 27 27 27 27 26 25 24 23 22 21 21 20 20 20 20 19 19 19 20 21 20 20 20 20 19 20
12 12 12 13 13 14 15 16 18 19 20 22 24 25 26 27 28 27 27 26 26 25 24 23 22 20 19 18 18 17 17 17 18 18 17 17 17 18 18 18 18 18 19 19
11 12 12 13 13 14 15 17 18 20 22 23 25 26 27 27 27 26 25 25 24 23 21 20 19 18 16 15 15 15 14 15 15 15 15 15 16 16 18 18 18 19 19 18
10 11 11 12 12 13 15 17 18 20 22 24 25 27 27 26 26 25 24 23 21 20 18 17 15 14 13 12 11 12 12 13 14 13 13 14 15 15 15 15 16 16 16 16
10 11 11 12 11 12 14 17 19 21 23 24 25 26 26 25 24 23 21 19 18 16 15 13 12 10 9 8 8 8 9 10 11 12 12 13 13 14 13 13 12 13 12 12
9 10 11 11 12 13 15 17 19 21 22 23 24 24 24 23 22 20 18 16 14 12 10 9 8 7 6 5 6 6 7 8 10 10 11 11 11 12 12 11 10 10 11 11
9 10 9 10 11 13 15 17 19 21 22 22 23 22 22 21 19 17 14 12 10 8 7 6 5 5 4 3 4 5 6 7 9 9 9 8 9 9 9 9 9 8 8 8
8 8 9 9 11 13 15 17 19 20 21 21 21 20 19 18 15 13 10 8 6 5 3 2 2 3 3 3 3 5 6 7 8 8 8 8 8 7 7 7 7 7 6 5
8 7 8 9 10 13 15 17 18 19 20 19 18 17 16 13 12 10 7 5 3 2 2 2 2 3 3 4 5 5 6 8 8 8 8 7 7 7 6 5 5 5 5 4
7 7 7 8 10 12 14 16 17 18 17 17 15 14 13 11 10 8 6 4 3 3 3 3 3 4 5 6 6 7 8 8 8 9 8 8 7 7 6 5 4 3 3 3
5 6 6 7 9 11 13 15 15 16 15 14 13 12 11 10 9 8 6 5 5 5 5 5 6 6 7 8 9 9 9 9 9 9 9 8 8 7 6 5 4 3 2 1
5 5 6 7 9 11 12 13 14 14 13 13 12 11 10 9 8 7 7 6 6 6 7 7 8 9 9 10 11 10 10 10 10 10 10 9 8 7 7 6 6 5 5 5
4 5 6 7 8 9 11 12 12 12 12 12 12 11 10 10 9 8 8 8 8 8 8 9 10 10 11 11 11 11 12 12 12 12 11 10 10 9 9 9 8 8 8 8
3 3 4 6 7 7 8 9 10 11 11 11 11 11 10 10 10 10 10 9 9 9 10 10 11 11 11 11 12 12 13 13 12 12 12 12 11 11 11 10 10 10 10 10
2 3 3 4 5 6 6 8 9 10 10 11 11 11 11 10 10 11 11 11 11 12 12 12 12 12 12 12 13 13 13 13 13 13 13 13 13 12 12 12 12 12 12 12
2 2 3 3 3 4 5 6 8 9 10 11 11 11 11 11 11 11 11 11 11 12 12 12 13 13 13 14 14 14 15 15 14 14 14 13 14 14 14 13 13 13 13 12
2 1 2 2 3 3 4 5 7 8 9 10 11 11 11 11 11 11 12 12 12 12 13 13 14 14 15 15 16 16 16 15 15 15 14 14 15 15 15 14 14 14 13 13
2 1 1 1 2 3 4 5 6 7 8 9 10 11 11 11 11 12 13 13 14 14 14 14 15 15 16 16 16 16 16 16 16 16 15 16 16 15 15 15 14 14 14 13
3 2 1 1 1 2 3 4 5 6 7 8 9 10 10 11 11 12 12 13 13 14 14 14 15 15 16 16 16 17 17 17 17 17 17 16 16 16 15 15 15 14 14 13
5 4 3 2 1 1 2 3 4 5 6 7 8 9 9 10 11 11 12 12 13 13 14 14 15 16 16 16 17 17 17 17 17 17 17 16 16 15 15 15 14 14 13 13
6 6 5 5 3 2 1 1 2 3 4 5 6 8 9 9 10 11 12 12 13 14 14 15 15 16 16 17 17 17 17 17 16 16 16 16 15 15 14 14 14 13 13 12
8 8 8 7 6 5 3 3 2 2 3 4 5 6 7 9 10 11 11 12 13 14 15 15 16 16 16 17 17 16 16 16 16 15 15 15 15 14 14 13 13 13 12 12
10 9 9 9 8 7 5 4 4 3 3 3 4 6 7 8 9 10 11 12 12 13 14 14 15 15 16 16 16 16 15 15 15 15 15 14 14 13 13 12 12 12 11 11
12 12 11 11 10 9 8 7 6 5 5 4 4 5 7 8 9 9 10 11 12 12 13 13 14 14 14 14 14 14 14 14 14 13 13 13 12 12 12 11 11 10 10 10
15 15 14 13 12 11 10 9 8 8 7 6 6 6 6 7 8 9 9 10 10 11 11 12 12 12 12 12 12 12 12 12 12 12 12 11 11 10 10 9 9 9 8 8
Wind_Direction
236 242 249 255 262 268 273 276 281 284 287 291 292 293 295 297 298 298 298 297 296 295 292 289 287 285 282 280 278 274 269 266 261 256 251 248 245 243 244 243 241 241 244 244
244 247 254 259 265 270 275 279 283 288 291 293 296 297 298 299 300 300 300 299 298 296 294 291 288 285 282 279 276 271 265 261 255 253 248 243 241 238 240 240 241 242 247 244
247 254 258 262 267 271 276 280 285 289 292 296 299 301 302 303 303 302 302 301 299 297 295 292 289 285 281 276 273 266 260 256 252 251 246 239 236 235 237 240 241 242 244 243
248 250 257 263 265 271 277 283 289 293 297 300 302 304 305 306 305 304 303 302 300 297 295 292 287 284 279 275 270 264 255 250 248 246 242 233 231 234 236 241 243 240 240 244
244 252 261 265 269 275 280 286 293 298 302 303 304 306 308 308 307 306 304 302 299 297 294 291 286 281 278 273 267 261 252 240 240 239 235 230 228 232 236 240 243 244 244 243
244 250 256 264 273 283 289 294 300 304 307 308 308 309 310 310 309 307 305 303 300 298 294 289 285 280 276 271 260 253 244 235 232 228 226 225 225 231 237 238 239 245 246 243
245 249 256 267 277 287 295 301 305 308 311 312 311 312 313 312 311 309 307 304 302 299 293 286 280 278 274 261 251 244 231 223 220 223 221 221 219 225 230 233 234 237 237 235
245 251 259 273 282 290 297 304 308 311 313 314 315 316 317 316 314 312 310 306 303 298 291 283 273 268 258 251 242 227 215 211 213 213 214 212 214 213 218 224 225 229 236 238
240 253 268 279 286 295 303 308 313 316 318 318 319 320 321 321 319 317 314 309 305 300 292 279 265 252 238 234 216 206 197 197 197 199 202 205 201 200 210 209 208 218 229 235
239 255 271 283 292 301 308 315 319 321 322 322 324 326 326 326 326 326 323 318 312 308 312 286 236 212 190 172 167 167 173 175 177 179 182 183 184 189 194 199 205 213 219 229
239 255 275 293 304 309 314 319 322 325 328 329 331 332 334 335 336 340 340 339 345 6 35 83 116 142 159 158 153 150 153 163 165 164 166 168 168 171 177 184 194 206 217 235
244 259 279 298 309 315 321 325 327 330 333 336 339 342 345 346 350 357 6 22 43 65 85 92 116 131 137 142 142 141 143 149 156 158 159 158 157 160 160 162 170 183 196 210
249 264 279 298 313 322 327 331 334 338 343 348 352 356 360 4 9 19 35 54 68 78 83 90 103 117 126 135 133 132 135 139 142 145 146 145 143 141 139 138 139 142 142 133
257 274 287 303 316 326 333 338 343 348 354 0 5 8 13 19 26 38 54 64 74 84 88 94 103 113 120 124 127 128 128 130 131 133 135 133 129 125 121 120 116 110 103 97
270 286 298 310 320 329 340 348 352 357 4 10 14 19 26 32 41 56 70 77 82 87 91 99 107 111 115 116 120 123 123 123 125 124 124 123 121 117 115 113 109 103 99 94
292 296 311 322 329 339 349 359 4 9 15 19 26 33 41 47 55 63 74 80 86 89 94 101 105 107 109 111 115 118 119 119 119 119 118 118 117 114 112 110 107 104 100 96
297 301 320 332 341 353 359 7 15 21 27 33 39 45 51 56 60 66 75 81 85 91 94 97 100 103 107 111 113 115 117 118 118 117 116 115 114 113 111 109 107 104 101 97
275 301 332 344 358 8 13 19 28 35 42 45 48 52 56 61 65 70 76 82 88 92 93 97 100 104 107 110 112 114 116 117 116 115 115 115 113 112 110 109 107 105 102 99
260 288 329 1 20 26 28 33 40 46 48 49 53 57 61 67 72 76 80 85 90 94 99 101 103 105 105 107 109 111 113 114 114 115 116 115 114 112 110 109 107 105 102 100
250 264 289 23 38 40 41 44 50 53 51 50 55 60 65 70 76 80 83 88 91 95 100 103 104 106 107 108 109 110 111 112 113 114 115 115 114 112 110 108 106 104 102 100
246 245 217 147 90 66 49 51 61 60 57 55 59 64 69 74 79 85 89 91 93 97 101 104 107 108 109 109 110 111 112 112 112 112 113 113 113 111 109 108 106 104 101 99
239 237 225 204 179 119 70 72 70 67 65 65 67 70 76 81 85 89 93 95 97 100 104 106 108 109 110 111 112 112 112 112 111 111 112 112 112 111 109 107 105 102 100 97
236 236 232 224 217 201 172 131 89 77 75 75 77 80 84 88 92 95 97 99 100 102 105 108 110 111 112 114 114 113 113 113 112 112 111 111 111 109 107 106 104 101 98 94
235 232 231 229 225 219 209 198 178 134 104 91 89 93 96 98 101 103 104 105 105 105 106 108 110 112 114 115 115 114 114 113 113 112 111 111 110 108 107 105 103 100 96 92
232 229 228 227 223 219 217 214 209 193 162 129 110 109 112 110 110 111 111 111 111 110 110 111 112 113 114 115 115 114 114 114 114 113 112 111 109 108 106 104 101 98 93 88
232 228 227 225 222 219 217 215 211 205 195 176 148 134 130 127 124 122 120 118 118 118 117 117 117 117 117 117 117 116 116 115 115 114 113 111 109 107 105 102 97 92 87 82
231 227 226 225 223 220 217 214 211 208 205 197 182 165 154 146 143 138 133 131 130 128 125 123 123 122 121 120 120 120 120 119 118 116 114 112 109 106 103 99 94 90 84 78